Wind_Speed
15 15 15 16 15 15 16 16 16 16 16 16 16 17 17 17 17 18 18 18 19 20 20 20 20 21 22 22 23 24 26 29 29 27 21 23 29 27 26 24 19 14 9 10 13 10 6 4 5 5 4 3 3 2 3 3 2 3 3 4 5 5 6 6 8 7 5 5 6 7 5 5 7 8 2 3 6 4 6 6 3 7 9 11 19 31 35 33
15 15 15 15 15 15 15 16 16 15 15 16 16 16 17 16 17 18 18 18 19 19 20 20 20 21 22 23 23 23 25 27 26 23 22 19 19 20 22 22 21 17 13 12 12 8 4 1 2 4 5 2 2 3 4 3 3 4 4 5 8 6 6 7 9 7 5 6 7 8 3 2 6 6 3 1 1 1 7 5 6 10 12 16 22 28 29 30
15 15 15 15 15 15 15 15 15 16 16 16 16 17 17 16 16 18 18 18 19 19 20 20 20 21 22 22 23 22 22 22 18 15 12 14 14 15 16 16 20 20 17 14 9 6 5 1 1 2 4 3 2 3 5 4 4 4 3 6 7 5 6 6 7 7 7 7 7 8 4 4 7 4 4 1 1 1 4 5 7 10 11 15 17 21 25 24
15 15 15 15 15 15 15 15 16 16 16 16 16 17 17 16 16 17 17 18 18 19 19 19 20 20 21 22 22 20 18 14 8 5 5 12 13 18 17 9 17 20 18 15 10 9 8 3 2 2 4 3 2 2 5 5 4 4 5 6 5 6 7 7 8 9 8 6 5 4 3 6 6 2 3 2 1 3 4 5 9 15 16 17 17 20 23 22
16 16 15 16 16 16 16 17 17 17 17 17 17 17 17 17 17 16 16 17 17 18 19 19 19 19 20 21 19 17 12 5 2 1 5 12 15 20 21 9 11 19 17 15 10 9 8 3 2 1 2 3 3 3 4 6 3 2 7 6 5 7 6 8 9 9 8 6 5 4 3 6 4 3 3 3 3 4 4 2 11 19 20 20 20 19 19 18
16 16 15 15 16 16 17 17 18 18 18 18 17 18 17 18 18 17 16 16 17 17 18 18 18 18 18 21 18 12 3 2 6 2 4 12 16 19 23 16 2 13 15 14 9 5 4 2 2 1 2 2 5 6 4 5 5 4 5 5 6 7 6 6 7 9 8 7 8 5 4 4 2 2 1 4 3 5 4 5 15 17 19 22 20 18 16 15
15 15 15 15 15 16 16 16 17 18 18 18 18 19 18 19 18 18 17 16 16 16 17 17 17 17 17 20 15 6 1 8 16 7 5 15 16 19 21 17 5 8 13 11 9 5 3 4 4 3 3 2 5 7 4 3 5 7 5 3 6 7 8 6 5 7 9 9 9 5 3 4 3 3 1 2 3 1 3 10 15 13 17 20 17 16 15 15
15 15 15 15 15 15 16 16 16 17 17 17 18 19 19 20 20 20 18 16 17 16 16 16 16 15 15 16 10 4 3 15 24 18 17 21 20 22 20 14 10 4 12 12 11 7 4 5 5 4 3 4 4 3 4 4 5 9 7 3 3 6 7 7 7 7 8 7 5 4 6 8 7 3 3 3 3 5 9 10 13 13 14 15 15 16 15 15
16 16 15 15 15 16 16 15 16 16 17 17 17 18 18 20 21 21 19 17 17 16 16 16 15 14 12 10 5 5 8 17 19 15 15 17 18 19 16 13 12 6 8 13 14 10 5 5 6 5 3 5 4 2 3 6 6 7 7 4 4 6 6 7 8 9 9 5 5 6 8 9 6 4 3 1 2 8 11 11 12 13 13 12 12 14 15 16
16 16 15 16 15 16 16 16 16 17 17 17 17 18 18 19 20 19 18 18 17 17 16 15 14 13 11 6 3 7 8 10 9 6 7 9 15 18 17 17 15 10 8 10 12 12 7 5 6 5 2 2 4 4 4 6 5 3 7 7 8 8 6 5 7 9 8 5 8 8 9 9 4 5 2 2 6 9 12 12 10 12 12 11 11 10 12 13
17 16 16 16 16 16 16 17 17 17 18 18 18 19 19 19 19 18 18 17 17 17 16 14 13 12 8 3 4 9 7 7 9 8 11 16 23 27 24 23 18 12 11 9 9 12 13 11 7 3 2 3 3 3 5 6 4 3 4 6 9 10 8 7 8 7 4 4 8 10 9 7 1 3 5 7 9 10 14 13 11 11 10 10 10 9 8 10
17 17 17 17 17 17 17 17 18 18 18 19 19 19 19 20 20 20 19 18 17 17 16 14 13 11 9 7 11 19 18 18 22 23 27 29 32 31 27 24 18 13 12 8 10 13 14 16 10 4 3 2 2 2 4 4 2 4 3 3 6 7 10 12 10 7 4 5 6 10 6 5 2 4 4 10 11 10 13 12 11 9 8 8 8 8 7 8
18 18 18 18 18 17 17 18 18 18 19 19 20 20 20 20 20 21 20 19 18 17 16 14 14 12 9 7 11 22 28 29 32 36 36 31 30 31 26 22 18 14 14 12 15 16 13 15 12 7 4 1 3 2 2 2 1 3 3 2 3 4 8 11 9 7 7 5 6 8 4 5 5 5 5 11 12 13 12 11 12 9 7 7 7 7 7 8
20 19 19 19 19 18 18 18 19 20 19 20 21 21 22 21 21 22 20 19 18 17 14 12 13 11 6 9 16 25 28 28 33 38 33 28 27 29 26 21 18 16 15 16 18 17 14 14 11 6 5 3 3 5 5 3 1 2 3 3 4 5 5 5 7 8 8 6 8 8 5 6 7 3 8 10 11 14 13 11 12 8 6 8 8 9 8 7
21 21 21 20 20 20 20 20 20 21 21 22 23 24 25 26 26 25 22 20 18 14 13 12 11 8 6 11 19 22 18 16 25 29 25 27 23 19 21 17 13 14 13 14 16 15 14 11 8 5 4 4 4 5 4 3 2 1 5 5 5 5 3 4 7 11 11 6 7 9 5 4 5 2 7 9 10 11 12 11 10 8 8 8 8 9 8 6
22 22 21 21 21 21 21 22 22 22 23 23 24 27 29 31 29 26 24 22 17 13 10 9 8 6 5 8 13 14 10 10 17 18 14 18 18 16 19 16 11 13 13 13 14 14 11 7 4 4 3 3 5 3 1 2 3 2 5 6 5 5 3 4 5 9 13 7 5 9 5 1 3 4 5 8 11 9 10 11 10 10 9 8 7 7 6 5
22 22 21 22 22 22 22 23 23 23 23 23 26 29 31 31 27 25 24 18 12 8 7 6 4 4 7 11 12 10 7 9 12 13 15 18 18 19 16 9 7 9 10 12 12 8 5 5 3 4 4 3 4 5 3 5 7 4 3 4 3 4 6 5 5 5 11 10 7 8 6 4 5 8 8 9 11 9 11 12 11 11 10 9 8 6 6 6
22 22 21 21 22 22 22 22 22 22 22 24 26 29 30 27 22 18 13 5 3 1 2 5 3 3 7 9 9 8 7 12 17 20 24 23 18 20 15 6 3 4 4 6 6 4 3 3 3 3 4 5 5 7 9 8 6 5 4 4 2 3 7 8 5 4 9 11 9 8 7 5 4 8 9 10 11 10 11 10 10 10 11 10 8 7 8 7
21 22 22 21 21 20 20 21 21 21 21 23 25 27 23 15 9 5 0 5 5 2 1 3 6 4 7 7 9 10 13 19 23 20 18 14 9 15 14 7 3 2 2 2 4 6 4 2 4 5 7 11 11 10 9 4 5 8 6 5 5 4 5 7 6 6 8 9 8 9 8 6 8 9 10 10 10 10 9 8 8 9 10 10 7 7 8 9
22 23 23 22 21 20 19 19 20 20 20 21 23 21 12 6 3 2 1 1 3 5 4 5 9 9 12 12 10 13 19 20 15 11 14 11 3 9 8 4 2 2 4 4 4 4 5 4 7 10 10 11 11 8 7 5 3 7 5 5 6 5 4 5 6 7 8 8 7 9 8 8 11 12 11 10 10 10 10 10 9 9 10 9 8 8 9 8
23 24 23 22 22 21 19 19 20 20 19 19 17 10 3 3 4 3 4 5 9 12 12 12 14 15 18 17 15 12 13 14 11 13 20 15 6 8 4 5 5 4 5 4 2 2 5 8 11 10 7 7 8 8 7 9 3 4 4 4 4 5 4 6 6 6 6 6 5 7 9 9 12 11 10 11 12 13 13 12 12 12 10 8 9 9 9 8
24 23 23 23 22 22 20 19 21 21 18 15 9 2 3 6 6 7 7 6 10 13 15 16 16 18 20 21 21 13 5 8 13 16 14 6 8 8 5 7 7 5 5 3 3 2 7 10 9 7 5 6 8 8 9 10 8 2 3 4 3 3 3 5 5 4 5 5 3 6 8 6 7 8 8 9 9 10 12 11 11 14 12 10 11 11 10 10
24 23 23 22 22 23 20 20 23 21 13 8 5 5 6 9 10 10 6 6 11 10 11 13 14 14 15 15 16 11 7 7 9 14 10 3 6 8 7 7 8 6 6 7 7 6 7 7 7 8 6 7 7 8 11 9 8 4 3 4 3 3 2 3 5 2 3 3 4 7 6 3 4 5 6 6 4 5 9 8 6 10 10 10 11 10 11 13
25 24 23 22 22 21 20 23 23 14 7 7 8 8 8 9 10 9 3 4 8 7 8 12 11 10 12 13 11 11 8 7 6 10 9 3 4 6 6 7 7 6 8 10 10 7 5 3 8 10 7 7 7 8 11 8 7 6 4 5 4 3 4 4 3 1 3 3 5 9 5 1 4 7 5 4 5 5 8 8 7 8 7 7 8 7 10 13
25 25 24 23 20 19 23 23 13 7 9 12 10 7 5 5 7 5 2 3 5 5 5 6 5 6 10 10 9 10 4 5 8 10 8 2 2 3 4 5 5 8 11 10 8 6 6 5 7 12 10 8 7 8 11 9 6 5 4 6 6 4 4 4 3 2 4 0 2 7 5 1 3 8 5 3 6 7 7 8 9 9 7 7 9 9 10 11
26 25 25 23 19 20 21 12 6 11 16 12 6 4 5 6 7 3 1 2 4 4 2 1 2 3 6 5 8 6 1 4 9 13 12 7 5 4 3 3 5 8 9 7 5 4 5 7 5 10 12 10 7 6 8 10 7 4 5 8 7 5 3 3 2 2 4 4 5 3 5 2 2 4 3 4 8 9 8 10 11 10 8 9 9 9 10 10
25 26 25 22 19 19 14 7 10 14 10 4 2 4 7 7 5 2 1 2 3 1 1 1 2 1 4 5 9 5 1 4 3 8 12 10 7 3 3 3 4 5 6 5 5 4 7 9 6 9 11 11 9 6 7 10 8 3 6 10 9 6 4 3 1 1 2 2 4 2 5 4 3 5 5 6 9 11 10 11 12 12 11 11 10 10 11 11
26 26 26 23 19 16 13 13 14 11 7 4 2 5 7 4 3 2 2 1 2 1 1 1 1 3 4 5 10 5 3 2 2 3 7 13 10 1 1 4 3 5 6 7 6 3 9 12 9 9 10 9 9 6 6 9 7 4 6 10 9 8 7 5 3 2 0 3 4 4 5 4 4 3 5 4 7 11 12 13 15 14 13 12 11 12 11 11
27 27 26 24 20 17 15 14 12 11 8 4 2 6 5 0 2 2 3 0 2 1 1 1 3 4 4 2 6 6 5 1 1 4 3 9 10 3 2 4 3 3 3 6 5 2 5 10 9 7 8 7 7 6 7 9 6 4 7 7 5 5 5 5 4 2 2 1 5 7 5 4 3 2 6 3 3 9 12 14 13 12 13 13 12 13 12 10
29 29 27 23 21 17 12 12 15 14 10 8 7 7 3 1 0 3 1 1 1 1 0 2 3 4 5 3 2 6 5 2 1 1 3 1 5 3 2 2 2 1 1 2 4 5 3 4 7 7 6 5 6 5 6 9 7 4 6 5 3 3 2 2 2 3 3 4 8 8 8 6 2 4 7 6 9 15 14 11 11 11 14 15 14 13 12 10
30 30 27 23 21 15 8 10 14 12 10 10 8 4 1 1 1 2 2 1 1 3 2 2 3 4 6 5 2 4 4 4 2 1 2 2 3 2 2 0 2 2 2 2 2 5 5 3 4 3 5 6 6 5 5 6 8 5 5 4 3 1 3 4 4 3 3 7 7 7 9 7 5 4 6 10 15 18 16 14 16 18 17 16 14 12 11 11
34 33 27 22 18 15 12 8 3 3 6 6 4 1 1 1 0 2 3 2 1 2 1 1 3 3 5 5 3 3 3 3 1 2 1 1 2 1 3 3 2 3 2 2 3 4 6 4 2 1 4 9 8 6 4 4 6 5 5 6 4 1 0 1 1 1 4 7 4 7 9 5 5 5 11 17 17 17 19 18 18 20 19 16 14 12 10 10
37 32 24 15 11 14 18 12 4 5 6 8 4 1 2 1 2 4 3 1 2 2 1 2 4 4 5 5 3 3 3 3 1 2 2 2 0 2 3 4 3 3 3 4 5 4 4 3 2 2 4 8 9 8 6 6 7 7 6 6 6 4 4 5 5 2 4 5 3 5 7 3 4 4 15 23 22 20 19 13 12 15 16 15 14 12 9 9
36 26 17 11 8 12 14 12 10 7 6 6 3 1 2 3 3 2 2 3 3 2 1 1 4 6 5 3 3 3 2 2 0 3 3 2 1 1 3 4 4 2 2 3 4 5 4 4 5 6 4 7 12 10 7 6 6 6 5 6 5 5 5 5 5 3 4 4 2 2 4 4 3 3 13 24 22 16 9 5 7 10 9 10 10 10 10 9
30 19 12 7 8 10 9 12 15 13 8 4 2 1 3 4 3 1 3 3 2 1 1 2 3 5 5 3 3 2 2 3 2 4 3 2 2 2 2 3 5 4 2 4 3 3 4 5 6 6 5 8 11 8 6 7 6 4 4 5 5 6 5 2 3 5 4 2 1 2 3 4 4 3 6 15 15 8 7 7 9 10 9 10 10 10 10 9
26 17 8 3 4 4 6 12 15 15 10 3 1 3 3 3 2 1 2 2 1 0 3 4 4 5 5 3 2 3 3 3 2 2 3 3 3 3 3 2 4 6 4 3 2 2 4 5 5 5 7 8 10 10 8 7 7 4 4 5 5 4 5 1 2 1 3 3 3 2 2 2 1 4 4 8 11 8 9 8 10 12 12 12 10 9 10 10
23 16 7 5 5 5 4 11 15 14 8 3 3 4 2 3 4 2 2 2 1 0 2 4 2 4 3 2 2 3 4 2 2 1 1 2 3 3 5 2 3 9 7 3 0 1 4 3 5 7 11 10 7 10 8 5 7 6 6 7 3 4 2 1 2 1 3 3 4 1 4 2 2 1 2 8 13 9 10 10 10 12 12 12 10 10 11 11
21 12 7 7 6 6 5 12 16 11 4 2 5 6 3 3 3 3 1 2 2 2 3 3 2 2 2 1 2 4 6 3 2 2 1 1 3 4 6 3 3 8 8 5 1 3 1 1 6 6 12 8 5 8 7 5 5 5 6 6 5 4 3 1 2 1 1 3 3 2 2 3 4 4 4 10 14 13 12 11 11 13 14 13 11 11 12 11
15 6 3 4 6 6 4 15 16 7 2 2 5 5 3 3 4 4 4 3 3 4 3 3 3 3 2 2 2 3 7 4 3 3 1 2 2 3 5 5 4 6 7 8 4 3 2 1 3 4 8 8 4 6 7 7 6 3 4 6 5 4 4 2 3 3 2 3 2 1 1 2 5 6 12 16 16 16 15 13 13 15 16 14 12 12 12 12
8 2 2 3 5 1 11 15 9 3 2 2 3 3 3 4 5 4 5 6 4 4 4 3 3 2 1 2 2 1 4 3 2 2 1 2 3 4 3 6 4 4 7 8 5 1 2 0 2 3 3 7 4 5 9 11 8 4 4 6 6 4 3 2 1 2 3 2 3 2 1 4 6 5 13 19 18 18 19 18 16 15 16 15 13 13 11 11
4 2 1 1 4 11 15 8 2 2 2 3 3 4 4 4 5 5 6 8 6 5 4 4 3 2 1 1 3 2 2 1 1 1 0 2 3 3 4 7 5 3 5 6 5 3 1 1 1 2 1 5 6 7 9 9 7 7 5 5 6 6 4 3 2 1 2 2 3 4 3 6 5 5 11 15 17 20 20 19 16 16 18 16 13 14 13 11
2 2 2 1 6 12 10 2 1 2 2 3 3 4 5 5 6 5 4 7 7 6 5 4 4 4 2 2 3 2 0 1 1 1 1 3 4 4 5 6 7 5 5 4 4 3 3 1 1 3 3 6 7 5 8 10 8 6 5 4 4 5 5 5 5 3 2 2 2 4 3 6 5 4 8 8 8 13 16 17 16 15 16 15 13 14 13 11
2 3 5 5 6 10 5 1 3 2 3 4 3 6 6 5 5 5 4 4 4 3 3 3 4 4 3 4 3 2 1 1 2 3 3 4 5 7 7 7 8 6 4 3 3 3 3 2 2 4 3 3 3 1 6 10 8 4 4 3 4 5 5 5 5 4 4 4 3 2 2 5 6 3 2 4 3 5 8 12 14 14 12 13 14 14 13 11
3 4 4 3 6 8 2 2 2 2 4 4 6 7 6 4 6 6 5 3 3 2 3 4 3 3 3 3 2 1 1 1 2 4 5 4 5 9 10 11 11 8 5 4 3 5 4 2 0 2 1 2 2 4 5 6 7 4 3 4 5 6 7 4 2 3 3 4 5 5 3 6 6 3 4 7 7 7 6 6 10 12 12 12 12 12 12 11
4 3 2 2 5 5 1 1 1 3 4 5 6 7 5 4 5 6 5 4 4 4 3 3 2 1 3 2 2 3 3 3 3 4 4 4 4 5 8 14 14 10 8 7 3 4 4 2 2 2 3 5 5 5 4 5 6 4 4 7 6 5 8 5 2 3 2 4 5 6 5 6 5 3 6 7 8 9 7 7 9 10 11 12 12 11 12 11
2 1 2 2 3 3 2 2 1 2 4 4 5 4 3 3 3 3 5 4 3 4 3 3 3 1 1 2 3 4 4 6 6 4 3 3 4 3 7 14 14 11 12 11 4 3 1 1 3 5 6 6 7 6 5 4 6 5 6 8 6 4 6 6 4 4 4 3 3 4 6 4 3 1 7 7 9 10 9 11 11 11 11 12 11 12 12 11
2 1 2 4 1 2 2 2 2 2 3 2 2 3 4 5 4 1 3 2 3 4 3 2 2 1 2 2 2 3 3 5 7 5 4 5 4 4 5 11 12 12 13 10 3 2 2 4 4 5 6 8 8 6 4 6 6 6 7 7 5 5 7 7 5 5 5 5 3 7 5 7 6 7 9 10 11 11 11 13 14 13 13 12 11 11 12 12
2 1 2 4 3 2 3 3 4 6 4 2 2 3 4 6 6 3 2 2 3 4 3 1 2 4 5 5 3 2 3 2 2 3 4 3 4 5 1 7 6 8 8 3 1 3 1 5 4 3 5 5 5 6 5 7 6 7 10 9 6 7 8 7 6 7 7 6 6 6 8 10 9 9 11 12 13 15 14 13 12 12 12 12 12 13 13 13
3 2 2 3 3 4 6 9 10 9 6 2 2 3 4 5 7 5 1 0 2 3 2 0 4 5 6 5 3 1 2 1 1 3 2 2 4 4 2 3 2 4 6 2 1 3 2 4 4 2 5 4 3 4 6 9 6 6 8 9 9 9 9 8 5 5 6 4 5 8 10 9 7 7 8 6 6 9 9 10 11 13 14 14 14 15 14 14
3 3 3 3 4 6 6 7 8 7 4 1 2 3 3 4 6 6 2 2 2 2 3 2 5 5 4 4 3 3 4 4 3 5 3 1 4 2 2 2 3 6 6 4 3 2 2 4 2 1 3 4 6 3 5 9 8 6 4 4 8 8 5 5 3 3 5 2 1 8 8 6 6 3 2 4 6 9 10 11 12 13 14 14 14 14 14 15
5 7 7 5 5 5 4 5 5 5 3 2 3 5 4 4 5 6 4 4 4 2 3 3 5 5 2 2 2 5 7 7 8 10 7 4 3 3 1 2 2 7 5 4 3 2 2 2 2 4 2 5 5 3 5 8 9 7 3 3 7 7 4 3 3 4 6 5 5 8 4 5 5 3 6 6 8 12 13 13 13 12 13 15 15 16 15 15
8 7 6 5 4 4 4 5 4 3 3 3 6 9 7 6 6 4 3 3 3 3 3 2 5 4 4 6 7 8 7 7 9 10 7 6 7 6 4 3 1 4 5 4 1 1 3 0 2 2 1 5 5 3 4 8 8 3 3 5 6 4 2 1 2 2 6 7 7 5 4 5 5 7 8 8 8 10 12 13 13 14 14 15 15 16 16 16
Wind_Direction
348 347 346 345 344 341 339 339 340 339 336 332 331 331 331 331 329 327 326 324 325 325 326 329 331 333 330 329 327 325 324 321 318 315 299 285 287 283 275 268 263 262 253 273 285 280 279 252 230 207 170 155 181 197 199 197 156 154 159 202 208 184 196 183 184 190 177 215 233 251 244 195 269 303 268 29 37 89 66 21 24 35 53 96 114 128 135 138
348 346 344 344 343 340 338 339 339 337 334 332 332 330 328 328 326 326 325 323 323 323 324 326 329 331 331 332 329 327 325 320 315 299 291 310 320 305 285 262 247 242 242 268 270 238 221 207 208 167 146 166 205 191 198 193 180 187 154 194 215 183 191 192 184 188 172 197 225 238 243 213 255 290 312 52 329 79 81 42 55 71 75 93 109 122 128 134
346 343 342 341 341 339 338 338 337 335 334 332 330 327 326 327 327 326 323 323 322 322 324 324 326 329 331 332 330 330 326 318 309 283 303 359 8 349 320 266 233 227 234 247 249 237 239 214 37 111 141 204 220 187 196 199 197 192 160 206 219 182 203 214 189 201 204 201 220 243 268 298 277 291 343 41 209 344 132 142 105 106 108 108 114 120 125 129
344 342 339 337 338 337 337 336 335 334 333 332 329 328 326 324 328 327 323 321 320 321 322 323 326 327 330 332 331 333 326 312 285 246 3 21 17 10 355 283 220 220 226 227 240 269 272 265 9 64 143 205 237 197 198 207 199 184 197 212 197 172 205 223 210 218 222 211 212 247 307 305 293 9 46 78 35 308 227 190 136 136 132 128 132 132 134 134
341 339 336 335 335 335 335 335 334 333 331 331 329 327 326 322 322 324 324 321 319 321 320 322 324 325 330 331 333 335 329 311 274 166 43 22 17 13 6 351 216 212 210 214 242 271 265 265 47 65 144 183 200 204 213 213 195 207 221 207 174 170 202 224 215 227 231 226 238 257 283 277 297 46 86 127 176 246 268 204 140 144 142 140 141 138 137 134
338 336 334 333 332 332 332 333 332 331 329 329 327 326 325 322 319 317 321 322 320 319 319 321 322 325 328 330 334 329 318 267 313 12 41 359 357 356 3 7 259 202 198 207 238 262 238 178 116 175 164 169 209 218 213 206 202 240 239 202 188 179 198 223 204 221 230 228 239 234 238 251 341 352 166 127 188 255 287 150 142 144 143 138 136 135 134 133
336 333 332 331 330 328 328 328 328 328 327 326 325 325 323 321 319 316 316 319 320 318 319 320 320 323 326 334 335 310 219 263 275 255 285 321 326 330 346 4 17 198 194 198 220 229 189 171 175 179 163 186 221 224 230 233 222 234 246 208 205 199 208 229 208 212 221 223 229 226 248 242 232 260 142 53 312 304 97 130 134 136 135 132 132 134 136 136
335 332 330 329 328 326 325 324 324 324 323 322 321 321 321 319 318 316 315 316 317 317 317 316 319 322 326 339 338 303 240 252 264 269 282 296 301 312 329 359 18 237 212 209 214 201 177 184 186 176 185 222 214 210 228 242 246 233 232 231 211 216 222 234 241 234 231 226 216 221 252 253 234 202 94 19 347 92 108 118 123 127 128 130 135 135 137 138
335 331 329 327 327 327 325 323 322 321 319 319 317 317 316 316 316 316 316 315 314 314 315 315 315 318 324 337 331 289 257 253 274 294 290 289 292 306 323 342 357 327 243 234 224 203 193 184 191 198 187 227 235 231 208 202 235 228 214 236 238 238 236 227 239 242 243 227 171 204 245 261 238 150 84 360 109 112 116 118 124 130 130 131 134 136 140 143
334 332 329 326 326 326 325 324 322 319 318 318 316 314 313 313 313 312 313 312 311 311 311 312 311 313 318 328 300 269 262 268 288 297 290 302 303 311 318 320 333 335 305 274 237 208 203 191 192 212 206 244 238 233 218 199 237 234 191 218 234 246 254 224 231 241 253 240 180 189 231 251 224 160 220 198 143 132 122 125 135 134 133 132 130 136 142 149
336 334 330 327 326 325 325 324 321 319 318 317 315 313 311 309 309 309 309 307 307 308 307 307 306 307 302 291 249 246 248 283 281 284 299 304 305 306 306 306 316 317 303 300 264 224 211 212 200 192 219 235 242 257 249 220 256 284 203 218 232 239 254 243 244 244 246 249 189 175 223 247 153 192 214 160 150 144 132 136 142 134 130 130 131 140 149 157
337 336 332 329 327 326 325 323 322 319 317 316 313 311 309 306 306 306 305 304 304 303 303 303 300 300 290 261 241 246 260 281 285 294 296 296 297 296 296 297 299 296 285 283 280 259 226 217 212 209 228 208 202 241 259 231 234 276 236 231 241 237 245 237 239 235 203 234 181 157 226 253 167 231 196 146 151 145 136 139 141 136 129 128 133 144 155 163
337 336 334 332 328 325 324 322 321 320 317 315 311 309 307 303 302 302 304 304 303 301 299 298 293 291 283 261 252 260 273 283 288 293 291 289 289 285 285 286 284 281 272 260 266 273 255 231 219 224 258 234 209 227 293 300 198 240 221 186 232 244 244 227 218 218 210 220 164 153 232 254 240 248 158 145 151 144 140 147 147 143 132 131 138 145 157 163
336 334 333 331 329 326 323 322 321 321 319 316 313 310 306 302 300 300 300 300 300 300 296 295 294 288 266 263 274 277 281 286 284 281 278 277 283 285 282 275 273 270 267 264 263 271 268 245 219 221 259 230 258 314 338 342 5 200 201 184 193 216 244 221 194 192 213 220 158 167 235 249 264 255 154 153 158 150 145 151 150 144 136 136 142 147 158 164
336 334 331 329 328 326 325 324 323 323 321 319 317 313 309 306 303 300 297 296 299 296 289 293 290 280 276 271 279 290 293 284 272 268 268 271 271 278 279 272 272 271 270 267 263 266 261 237 201 205 257 213 227 304 337 343 331 170 195 210 196 205 269 272 206 184 204 221 153 175 222 255 266 218 155 154 162 158 145 148 147 140 138 137 145 149 154 160
335 334 331 329 326 326 327 326 326 325 323 322 318 313 310 307 304 300 296 294 291 285 280 289 277 254 261 274 293 308 294 259 260 268 280 273 253 251 267 272 278 278 276 268 262 264 248 214 176 186 219 208 187 196 343 334 289 247 198 204 193 188 226 267 240 195 198 206 176 192 192 227 237 171 153 156 160 159 146 148 146 140 142 142 145 149 153 158
334 333 332 331 328 328 329 328 328 326 324 321 317 314 310 306 303 298 295 289 277 265 252 253 266 254 247 270 297 308 291 276 276 286 302 292 264 250 255 261 277 278 284 280 266 258 224 188 183 179 187 212 167 143 189 228 227 238 183 188 210 166 176 221 262 224 193 193 209 203 181 209 210 159 156 166 161 158 155 153 149 145 145 145 145 151 164 170
331 330 331 330 329 329 329 328 327 325 323 320 317 314 309 305 301 299 295 262 180 157 240 240 249 277 253 251 266 278 312 315 307 300 298 297 272 241 228 211 240 254 286 292 253 208 175 185 180 159 172 198 190 170 195 215 196 185 155 162 208 158 182 204 227 226 179 187 206 189 186 215 184 150 158 172 166 164 164 152 146 148 147 149 150 158 168 176
328 327 328 327 326 327 326 326 325 323 322 320 318 316 315 312 303 308 31 128 119 104 194 209 181 209 272 261 244 267 301 305 304 298 286 293 261 218 209 206 229 203 203 236 210 186 168 170 171 181 196 197 201 191 197 221 131 150 154 148 167 171 210 213 220 223 169 172 202 182 183 179 157 160 164 171 169 163 160 143 142 150 150 152 154 164 171 175
327 325 326 327 326 324 323 324 324 324 323 322 323 328 340 352 337 356 37 154 212 229 232 210 193 219 264 277 272 286 303 302 297 279 273 288 225 180 185 186 169 193 210 191 194 194 156 179 208 204 206 198 196 182 198 251 127 135 144 146 168 181 228 231 224 225 165 159 204 183 167 162 164 174 169 165 165 163 160 151 152 157 158 162 162 167 169 168
326 325 325 327 325 324 324 325 323 323 323 318 323 337 349 321 311 319 322 270 242 240 244 238 223 232 248 259 272 290 310 305 288 276 279 278 192 159 173 166 161 202 208 179 217 216 158 204 219 208 201 184 179 165 188 242 236 118 133 146 168 186 223 237 223 224 175 165 203 170 155 168 174 174 168 160 162 172 170 160 162 165 165 168 164 163 160 158
325 323 324 325 323 324 324 324 324 323 321 316 317 307 248 283 290 293 304 288 261 239 240 244 238 245 251 255 266 271 276 283 289 291 285 257 173 174 178 165 178 193 167 165 251 224 197 218 209 182 172 152 164 162 171 224 238 174 144 133 160 208 235 258 253 240 182 175 200 163 153 168 170 159 160 165 170 178 175 169 167 167 168 171 169 162 158 159
324 322 323 323 321 323 322 322 324 320 316 322 303 241 272 301 304 301 294 290 286 254 234 240 239 250 256 259 257 238 220 234 266 281 271 195 175 183 169 174 186 173 157 186 204 193 206 218 171 160 172 149 158 167 164 204 234 209 159 143 196 230 169 224 265 251 154 149 149 145 136 130 120 118 141 161 159 160 172 173 168 173 173 171 170 163 161 166
324 323 323 322 321 323 322 321 322 317 312 323 298 277 294 304 306 310 289 274 290 275 240 231 231 243 249 254 232 192 208 220 216 264 264 176 170 177 171 181 172 174 194 199 204 214 247 234 157 160 181 167 159 174 172 184 223 215 174 161 197 223 178 205 257 188 101 67 121 120 96 84 143 147 153 140 127 142 166 169 171 187 182 161 167 167 169 174
325 323 322 324 324 323 323 322 324 332 324 311 295 298 317 301 305 313 285 288 283 275 258 229 220 236 237 236 202 175 206 237 213 244 260 231 208 192 182 178 164 198 204 191 201 224 261 256 165 160 183 186 169 178 182 180 203 225 202 183 185 183 205 263 318 101 110 15 189 125 106 275 175 163 165 129 141 152 165 176 184 189 177 165 174 179 180 181
324 321 322 327 329 327 326 325 327 329 323 307 284 319 329 306 311 309 180 312 282 269 290 244 167 229 241 190 171 160 63 263 226 225 239 243 217 200 206 191 179 205 192 175 205 206 230 248 187 167 181 188 190 194 191 176 169 226 215 188 186 183 207 267 333 103 153 215 249 162 141 194 229 188 190 156 157 164 177 190 195 192 184 180 183 185 185 183
322 320 325 329 330 332 326 308 312 317 312 288 268 331 326 307 292 240 138 342 290 251 242 249 118 246 266 171 162 147 137 278 254 210 218 213 207 221 238 215 180 193 166 160 217 188 185 218 215 184 178 185 202 203 192 172 157 229 216 171 175 194 200 214 201 139 189 233 296 247 137 130 218 203 193 186 177 177 188 199 200 198 192 186 187 190 188 184
322 323 327 325 324 321 302 293 301 292 267 266 294 331 333 315 237 184 79 357 310 351 175 260 310 289 281 170 164 177 229 301 18 257 216 186 187 177 220 227 176 173 171 175 213 193 174 202 211 190 184 194 200 183 164 158 157 216 193 161 171 189 187 195 218 253 240 38 313 258 136 133 239 200 163 194 196 183 190 206 206 198 191 186 187 192 190 185
324 325 322 318 314 304 294 289 274 257 257 265 305 326 338 320 213 75 77 100 307 5 104 346 322 304 311 169 181 223 263 346 106 273 255 172 180 155 170 225 170 169 201 179 200 225 181 195 196 186 201 200 174 159 151 152 175 192 152 141 145 160 170 181 194 197 82 56 249 232 165 154 275 220 164 168 211 195 198 209 207 194 189 189 187 190 190 183
325 322 318 314 306 297 296 280 256 248 256 262 280 306 327 236 337 57 60 254 305 321 312 347 338 332 339 359 227 241 248 274 300 316 327 203 175 159 184 208 123 127 311 126 178 236 239 194 184 186 204 183 142 153 154 158 180 154 122 122 89 77 78 100 128 97 88 254 239 208 175 168 214 222 184 176 196 198 199 202 197 190 190 189 188 189 187 179
323 320 316 308 296 285 281 274 260 248 249 257 265 281 327 327 66 100 234 252 331 313 337 341 328 348 352 2 321 261 240 268 324 69 310 341 93 149 213 223 61 65 27 60 169 248 268 233 207 192 173 154 143 168 164 165 182 155 122 135 109 360 8 31 15 59 161 244 240 179 162 171 208 214 190 207 212 200 195 196 192 190 189 185 185 186 182 177
324 321 315 304 287 260 237 241 247 206 209 201 192 193 87 19 328 208 247 345 330 276 16 309 305 348 340 332 291 251 234 251 263 127 245 348 78 197 202 188 160 111 176 201 175 236 261 240 240 300 176 161 156 174 169 172 192 167 131 136 143 183 83 126 265 196 213 244 237 162 152 173 231 201 182 205 219 207 200 201 193 186 184 181 181 181 176 172
325 323 317 306 274 237 230 225 170 126 168 166 150 114 139 226 252 212 236 309 239 230 158 247 285 311 309 312 294 262 254 249 174 125 222 252 246 266 242 221 187 131 171 181 160 192 253 275 209 210 212 172 164 175 179 186 193 180 161 157 163 163 159 193 212 227 244 256 252 157 151 187 269 206 185 196 210 210 204 201 187 181 179 177 177 174 168 167
327 326 319 302 250 230 236 224 194 175 175 162 134 101 174 245 252 194 243 253 225 264 275 243 304 310 286 264 270 296 307 286 201 144 188 221 199 255 263 244 212 160 118 141 158 179 203 254 209 193 206 177 179 187 171 159 176 185 154 137 165 177 169 190 199 202 231 257 295 116 146 187 199 221 202 198 204 205 188 145 147 164 169 165 166 167 165 168
331 333 325 296 243 235 233 208 197 199 199 160 110 194 209 244 252 209 247 238 218 278 260 255 295 298 283 252 252 268 220 249 236 167 179 196 195 208 223 221 204 200 142 146 182 180 183 247 238 206 208 180 181 186 149 133 166 192 124 127 187 188 151 147 176 176 178 209 269 153 189 216 188 285 246 197 192 170 121 115 135 151 162 160 162 168 169 172
337 343 341 299 269 261 216 194 188 193 197 170 141 216 222 242 238 193 227 227 184 311 304 290 250 234 259 247 246 252 206 222 244 196 194 192 201 207 206 218 188 189 186 158 194 177 170 257 268 194 211 208 178 173 174 167 169 170 151 171 195 160 127 116 214 185 112 153 244 189 190 291 238 332 332 166 165 139 127 141 148 159 167 164 167 172 172 174
336 339 334 297 309 324 218 187 175 178 188 181 212 226 232 246 232 215 276 322 355 223 294 295 221 205 250 240 228 218 179 208 259 221 189 200 226 211 204 242 181 189 198 156 303 239 154 257 278 176 196 228 187 164 188 193 152 149 192 194 128 106 116 94 189 332 66 159 266 208 168 204 167 266 332 150 160 159 152 156 158 164 168 168 172 173 174 175
328 324 313 296 304 318 253 186 168 169 185 211 240 248 239 233 218 191 224 308 283 244 249 262 218 200 242 264 241 183 161 187 216 176 186 214 249 212 183 200 200 198 195 148 140 298 112 294 286 190 185 211 183 161 189 221 180 156 182 178 131 150 202 86 154 187 111 184 277 326 182 204 183 187 178 165 172 173 163 161 165 168 173 175 173 170 170 169
324 320 310 308 324 324 213 172 163 163 198 226 247 252 243 254 245 204 195 220 246 247 246 251 230 213 229 259 266 166 162 182 174 162 183 164 235 235 171 167 206 205 182 156 173 288 6 68 270 218 179 167 154 167 183 210 210 134 131 166 165 169 182 164 159 164 159 192 237 316 352 248 228 195 176 178 182 174 168 171 176 175 177 178 174 170 167 164
323 326 306 341 356 53 157 156 154 160 212 239 248 255 284 289 269 229 200 204 230 245 246 252 226 205 236 271 305 170 172 192 156 140 180 182 226 266 183 160 190 198 165 163 184 247 342 267 255 275 181 149 169 201 190 194 193 159 154 177 181 175 154 147 170 142 134 165 193 173 251 261 253 203 182 183 178 174 177 178 178 178 177 178 175 170 166 163
318 335 272 106 114 143 141 133 131 169 221 262 255 255 278 280 271 265 222 205 215 235 242 262 259 262 326 316 316 301 188 165 63 120 249 219 211 265 228 178 173 167 146 168 197 190 180 219 275 294 173 166 206 211 188 182 168 158 178 193 186 176 137 133 218 240 120 158 189 156 192 260 257 200 194 190 179 179 181 175 174 178 177 176 173 168 166 163
310 330 275 241 165 151 130 101 215 164 242 258 256 256 265 270 272 283 245 205 209 227 227 238 249 250 255 233 258 286 160 104 286 198 229 237 212 229 237 187 170 168 153 182 209 175 168 192 310 284 226 207 228 210 170 161 141 146 191 196 167 156 129 140 191 225 155 163 184 135 170 258 268 219 200 198 186 182 176 169 170 175 176 172 167 165 163 158
295 295 297 292 194 155 112 303 208 171 236 250 281 265 260 270 268 279 278 224 212 229 217 216 227 218 214 218 228 276 46 112 238 228 235 261 240 228 220 178 172 180 166 188 202 169 191 226 285 292 283 230 249 94 137 149 138 151 209 173 151 172 172 158 168 183 178 177 163 132 209 257 288 297 159 125 97 137 158 167 166 167 171 167 162 162 161 156
298 279 290 293 182 155 116 281 240 262 260 270 284 270 260 255 251 262 273 243 213 220 224 230 223 199 217 238 238 272 352 56 256 243 230 240 244 230 208 178 179 188 188 197 172 170 203 206 163 299 23 127 145 95 117 156 159 177 206 180 175 163 147 147 142 138 182 204 163 145 208 249 286 336 95 102 93 107 131 155 161 163 165 163 161 162 160 156
305 257 249 264 179 162 175 235 254 288 291 295 284 282 286 262 242 238 239 244 237 233 250 262 251 205 215 225 229 245 235 207 230 250 224 223 258 243 195 181 184 188 201 211 154 135 195 182 141 161 144 161 177 165 173 177 165 180 193 188 195 151 138 164 164 126 204 226 154 147 201 253 298 29 99 107 110 120 129 139 156 168 165 161 162 162 161 159
337 326 302 298 175 177 227 209 195 262 292 311 300 293 287 277 272 224 221 244 236 227 256 270 262 263 180 188 219 228 217 209 220 256 271 247 271 260 184 180 184 188 203 213 195 86 82 228 186 174 176 186 191 203 212 165 151 175 178 177 190 151 129 131 120 149 194 174 167 211 197 207 277 155 133 138 141 143 148 152 161 170 167 164 163 163 163 160
22 333 311 335 316 239 250 186 166 252 276 290 306 310 286 281 301 277 210 227 205 206 226 238 230 187 156 178 227 236 237 219 210 234 271 253 263 279 196 173 179 194 201 208 213 81 32 298 248 188 206 212 197 203 194 140 147 168 156 159 180 156 128 121 146 188 163 127 225 257 189 172 220 206 175 167 157 157 166 168 169 170 167 164 159 156 158 155
10 269 283 347 329 299 321 302 290 304 300 210 223 302 295 292 312 323 246 246 229 205 199 286 267 230 220 215 205 229 270 275 209 237 267 261 303 326 186 155 167 186 178 160 72 127 176 281 254 212 262 251 214 215 181 135 140 159 150 155 167 160 156 161 191 196 154 149 218 223 180 186 213 213 198 186 172 170 172 167 163 160 157 156 155 155 157 156
353 303 310 350 311 283 287 283 291 309 312 258 250 281 276 295 316 314 248 249 301 246 175 267 276 253 245 236 197 205 254 327 318 279 280 315 321 340 101 132 112 124 138 144 216 149 164 268 245 251 307 314 307 253 175 137 132 150 154 160 161 167 175 173 189 184 147 159 206 174 177 207 227 217 211 197 159 152 145 139 146 154 157 159 160 161 162 162
5 314 321 327 293 281 275 284 304 315 307 289 309 301 272 283 308 315 276 189 282 283 157 212 287 290 263 232 187 203 220 188 206 245 236 354 322 329 119 166 134 116 133 183 216 177 187 252 253 49 352 315 325 337 130 133 135 138 135 141 143 146 150 142 161 155 119 81 163 146 164 237 262 232 139 82 100 120 131 145 155 160 162 161 163 166 167 167
334 295 304 311 300 298 300 314 322 317 326 357 334 324 311 283 303 322 299 221 216 233 190 225 300 311 283 274 249 236 232 203 204 228 225 212 253 265 272 274 120 117 149 195 205 176 186 252 317 49 32 289 308 8 96 109 108 112 104 118 134 132 129 154 197 180 145 140 119 113 144 238 243 167 116 116 139 144 149 158 159 162 165 164 167 171 171 171
332 297 299 300 286 297 316 324 327 327 335 339 328 328 323 307 310 318 301 268 245 238 235 283 333 336 330 322 291 258 247 227 227 239 228 211 229 235 238 272 343 121 163 189 186 177 159 112 342 40 38 281 298 340 92 96 96 129 219 191 162 142 122 160 262 226 165 149 132 141 200 207 171 148 137 139 153 159 165 168 165 166 168 170 175 174 173 176
Height
830 828 827 826 825 824 822 821 820 819 818 817 815 814 813 812 811 810 809 807 806 804 803 801 800 799 797 795 793 791 789 786 782 781 779 769 766 767 766 766 767 769 770 769 769 769 768 767 768 769 770 771 772 771 771 771 771 774 781 787 789 788 783 777 775 774 773 771 768 764 763 768 766 757 753 754 758 759 761 762 760 759 757 759 762 765 771 776
829 828 827 826 825 823 822 821 820 819 817 816 815 814 812 812 810 809 808 806 805 804 802 801 800 798 796 795 792 791 788 785 782 778 773 766 764 764 762 762 764 767 768 768 768 768 768 767 767 768 770 771 771 770 771 770 770 773 778 783 781 779 774 767 766 766 767 767 765 762 762 764 762 759 754 759 767 763 764 769 766 767 767 766 768 772 777 779
829 828 827 825 824 823 822 820 819 818 817 816 814 813 812 811 810 808 807 806 804 803 802 800 799 798 796 794 792 790 787 784 780 773 767 765 763 761 759 759 761 764 767 767 767 768 768 767 767 768 770 771 770 769 771 768 768 770 773 778 774 770 768 763 762 762 762 761 762 762 762 761 758 757 756 762 770 766 766 769 769 773 773 773 774 776 779 783
828 828 826 825 824 822 821 820 819 817 816 815 814 813 811 810 809 808 806 805 804 802 801 800 799 797 796 794 792 790 787 784 775 765 763 763 761 760 758 756 758 762 765 766 767 768 768 768 767 767 770 772 770 769 770 767 766 767 768 771 768 766 767 763 761 759 758 759 761 762 762 762 757 757 760 765 770 768 765 762 763 769 770 772 774 775 778 781
828 827 825 824 823 821 820 819 818 816 815 814 813 812 810 809 808 806 806 804 803 802 801 800 798 797 796 794 792 790 789 780 766 761 762 761 759 759 757 755 757 760 763 765 766 767 767 768 768 768 770 772 771 770 768 763 762 765 763 763 762 763 765 761 759 758 758 759 761 763 764 761 756 759 765 765 767 767 764 760 759 761 762 765 769 773 777 780
827 826 824 823 822 821 819 818 817 815 814 812 811 810 809 808 806 805 804 803 803 801 800 799 798 797 795 794 792 791 790 776 761 761 761 759 760 759 758 757 757 760 762 764 765 766 767 767 769 770 770 771 771 769 766 761 761 765 762 759 759 760 761 758 756 757 757 759 762 762 760 758 758 762 765 763 764 763 759 757 758 758 758 762 767 772 777 780
826 825 824 822 821 820 818 817 815 814 813 811 810 809 807 806 805 804 802 802 801 800 800 798 797 797 795 794 792 791 793 776 759 761 760 760 761 759 760 760 759 761 762 763 764 766 766 767 770 769 770 770 769 767 765 761 761 765 764 759 758 758 758 755 754 755 756 758 759 758 757 758 761 763 763 764 764 760 757 756 757 760 761 764 769 773 776 779
826 824 823 821 820 819 817 816 814 813 812 810 809 807 806 805 804 802 801 801 800 799 799 797 797 796 795 795 792 793 791 771 757 761 762 761 761 760 762 761 762 763 763 763 763 765 766 767 768 768 770 769 766 765 763 764 763 763 764 760 757 757 756 754 754 754 755 756 756 757 758 757 758 760 762 766 765 760 758 759 760 762 765 767 770 773 776 778
825 823 822 821 819 818 816 815 814 812 811 810 808 807 805 804 803 801 800 799 798 798 797 797 797 795 795 794 795 795 780 762 759 762 761 761 761 761 762 762 763 763 763 764 762 764 765 766 766 765 768 766 764 764 761 765 765 759 760 759 757 756 754 753 754 753 754 755 756 758 760 756 755 759 765 767 765 762 761 763 764 765 769 771 773 774 775 778
824 822 821 819 818 817 815 814 812 811 809 808 807 806 805 803 802 801 800 799 798 797 796 796 795 795 795 793 798 794 769 759 763 762 761 762 761 761 762 763 763 763 764 763 762 763 763 764 764 762 765 763 762 762 760 763 760 753 756 757 756 756 753 753 753 752 753 754 754 759 760 756 755 760 767 768 764 763 763 766 767 768 771 774 776 777 777 778
823 821 820 818 817 815 814 812 811 809 808 806 805 804 803 801 800 800 799 798 797 796 795 795 794 794 793 793 797 786 763 760 763 760 762 761 760 761 761 762 763 764 763 762 762 761 762 762 762 763 765 762 760 761 758 757 755 752 754 756 755 755 754 752 752 752 753 753 751 755 757 756 758 761 763 764 764 764 765 768 770 771 774 775 777 778 777 777
822 820 819 817 816 814 812 811 809 808 806 805 804 802 801 800 799 798 797 797 796 795 794 794 794 792 792 791 786 772 762 763 761 760 761 760 760 759 759 761 762 763 763 762 761 759 761 761 761 763 761 759 761 761 757 753 753 752 753 758 757 755 755 751 751 751 753 752 747 752 761 761 761 761 760 762 763 765 766 769 771 774 775 776 777 778 778 778
821 819 818 816 814 813 811 810 808 806 804 803 801 800 799 797 797 796 795 795 794 794 793 793 793 791 792 786 771 765 766 764 761 760 758 758 758 756 757 760 759 761 762 762 760 758 760 760 760 762 758 759 761 757 753 751 753 753 753 758 760 761 757 747 748 751 752 750 744 752 769 767 759 761 762 761 762 765 768 770 772 775 776 777 778 778 778 778
820 818 817 815 813 812 810 808 806 804 803 801 799 798 796 795 795 794 793 793 792 793 792 792 792 791 791 779 764 764 765 762 762 758 754 756 756 753 754 756 757 759 759 760 758 757 758 758 760 761 758 759 758 754 755 755 754 754 755 756 760 766 759 745 745 750 751 748 742 753 770 765 758 764 763 761 763 764 767 770 772 775 776 777 777 778 779 779
819 817 815 814 812 810 808 807 805 802 801 799 796 795 793 792 791 790 791 790 790 791 790 791 791 790 790 777 763 762 761 761 760 754 752 755 756 754 751 754 756 756 757 757 756 755 756 757 759 761 759 756 758 762 762 760 756 754 758 760 760 764 759 746 742 745 748 747 743 753 768 766 762 767 764 761 764 765 767 770 772 775 776 777 777 778 779 779
818 816 814 812 811 809 807 805 803 801 799 796 794 792 790 789 787 787 787 787 788 788 788 790 789 791 791 776 762 759 759 758 755 752 753 754 755 753 751 752 753 754 755 754 754 754 754 755 757 758 758 756 760 766 767 766 763 757 758 761 759 761 761 751 742 739 741 745 746 750 762 766 763 765 764 762 765 767 768 770 772 775 776 777 778 778 779 779
817 815 813 811 809 808 806 804 802 800 798 795 792 790 787 785 784 784 783 783 785 784 786 788 787 791 784 768 762 759 757 756 754 753 753 752 752 751 750 752 752 753 753 752 752 752 752 754 754 755 757 758 759 764 772 772 766 761 760 760 758 758 760 755 746 738 738 744 748 749 755 759 759 762 764 763 764 767 769 770 772 774 776 777 777 778 779 778
816 814 812 810 808 807 805 803 801 799 797 795 792 789 786 783 782 782 781 781 782 783 786 785 789 792 776 761 763 759 755 756 754 753 751 748 748 748 750 751 751 753 753 753 750 750 752 751 753 756 758 759 757 759 765 760 755 761 762 760 759 755 755 754 747 739 739 744 747 750 754 758 761 764 764 763 764 767 769 770 772 773 775 776 776 777 778 777
815 813 811 809 807 806 804 802 800 798 797 794 791 788 783 782 781 781 781 781 781 783 783 782 785 786 767 755 759 757 755 756 752 750 748 746 746 747 749 750 751 752 754 754 750 748 750 751 754 756 753 752 750 751 754 748 747 754 755 755 756 755 753 750 744 736 737 745 749 750 754 760 766 766 764 765 766 768 770 771 773 774 775 775 776 776 776 776
814 812 809 807 806 804 802 801 799 798 796 793 792 788 785 785 785 783 782 782 780 778 776 775 775 773 762 754 756 757 755 753 751 748 745 745 746 747 749 750 751 753 753 752 750 745 747 754 754 748 744 743 745 748 749 746 746 748 748 749 751 752 750 746 740 733 733 744 749 748 751 760 765 764 763 764 767 769 771 773 774 774 774 774 775 775 775 777
813 810 808 806 804 802 801 799 798 796 795 793 793 792 792 793 791 788 784 779 775 773 771 768 768 765 756 752 753 757 757 752 748 744 743 744 744 747 748 749 753 754 752 750 748 744 747 752 747 741 741 741 745 748 747 747 748 749 749 749 751 752 748 741 737 733 732 739 748 749 753 761 762 762 763 764 767 768 768 771 773 773 773 773 773 775 776 777
811 809 807 805 802 801 799 798 796 795 794 793 793 794 793 792 791 789 787 780 771 768 767 763 763 759 751 752 754 758 762 758 749 740 738 741 741 744 745 746 751 751 750 751 749 748 748 745 740 740 740 739 743 746 747 749 749 752 753 752 754 752 747 742 735 733 732 737 750 754 756 763 762 762 765 765 765 766 765 766 768 769 771 771 772 773 775 776
810 807 805 803 801 800 798 796 795 793 792 791 792 792 790 788 789 788 788 784 771 761 761 760 760 756 752 753 753 755 760 758 752 740 735 739 739 740 742 745 748 747 749 750 749 750 748 741 737 738 737 738 744 745 746 750 751 753 755 755 755 750 749 748 739 734 734 738 748 756 760 765 765 765 767 766 767 767 767 768 768 768 768 769 770 770 773 774
808 806 804 802 800 798 796 794 792 791 791 790 790 789 788 787 788 787 787 785 775 761 755 754 754 753 749 748 748 752 754 751 748 739 733 736 737 737 740 741 745 746 745 745 746 748 744 736 733 735 737 739 743 745 746 751 754 753 754 755 753 749 748 746 741 736 737 743 748 755 769 772 766 769 770 767 768 769 770 771 771 770 769 769 771 771 773 774
807 805 802 800 799 796 794 793 791 791 790 789 788 787 787 787 786 787 786 786 780 763 751 750 750 747 742 743 745 746 748 744 740 735 731 733 735 735 736 737 741 744 742 743 747 749 743 734 730 734 738 738 742 745 744 748 754 755 753 751 748 747 745 744 742 739 744 753 748 750 775 782 768 768 772 769 769 772 772 772 772 771 770 770 772 773 773 774
806 803 801 799 798 795 794 792 791 791 790 788 787 786 787 786 786 786 787 790 783 761 749 749 749 743 738 741 742 742 747 741 730 730 731 731 732 733 735 734 734 737 739 741 744 744 740 733 730 734 736 738 742 744 741 742 754 758 749 744 745 745 745 745 743 743 750 756 746 741 763 782 777 772 774 771 770 772 772 772 772 770 770 770 771 772 773 774
804 801 799 798 796 795 794 792 791 791 790 788 786 787 787 785 786 785 786 794 781 755 747 749 746 741 737 737 737 741 745 734 724 727 727 728 730 730 734 734 731 733 733 738 743 738 732 732 733 733 734 739 742 742 738 737 750 755 742 739 745 745 747 747 744 747 750 750 748 743 751 773 781 774 771 772 770 772 773 772 771 769 768 769 770 771 772 772
802 799 798 796 795 795 793 792 791 789 788 786 785 787 786 785 786 784 789 792 770 747 747 747 741 738 735 735 736 736 734 728 730 731 723 724 728 729 734 733 730 731 727 734 742 733 726 731 733 732 735 737 736 735 734 735 744 745 735 737 741 742 745 744 744 748 748 750 755 752 750 767 780 773 770 776 773 770 772 770 766 765 765 767 768 770 770 771
800 798 796 794 793 792 791 790 789 786 785 784 785 786 784 786 785 784 793 788 760 745 748 743 739 738 736 737 737 734 730 727 732 732 724 724 725 726 732 730 727 729 726 729 736 730 724 726 727 730 734 732 730 730 730 734 739 734 731 735 738 741 743 743 747 748 750 759 760 754 751 762 778 778 774 781 778 770 767 763 760 762 763 764 765 767 768 770
797 795 793 792 790 789 789 787 784 783 783 784 785 785 785 786 785 790 796 780 757 751 748 743 742 741 739 740 739 736 733 730 728 729 728 725 724 725 727 726 726 728 728 728 731 728 722 721 721 724 727 726 726 728 728 731 732 729 732 737 739 743 742 744 748 748 758 764 754 749 750 754 770 778 773 773 765 755 755 757 759 761 761 760 761 764 766 768
794 792 789 788 786 786 787 784 781 780 782 783 784 785 786 786 788 795 788 766 757 756 749 747 747 743 744 747 745 738 734 732 728 729 732 726 725 729 726 728 730 730 732 731 729 727 723 724 722 718 718 720 723 727 728 727 726 728 734 740 747 750 747 751 754 755 766 763 746 744 749 753 764 769 767 761 747 740 744 748 751 753 754 755 758 761 763 766
790 787 785 783 782 783 783 781 779 780 781 782 783 785 787 789 791 788 773 757 757 758 754 754 751 747 749 750 748 740 733 733 729 729 733 728 728 731 729 730 731 733 737 735 731 730 727 725 722 717 714 716 723 731 733 730 728 732 738 744 756 762 762 767 765 763 765 755 744 743 747 755 757 751 753 753 742 736 734 733 737 742 747 751 755 759 762 764
786 782 780 778 778 778 778 778 778 780 780 781 783 785 787 791 785 774 767 761 758 757 758 758 754 752 752 750 746 739 733 732 729 730 732 729 730 732 729 728 727 730 735 733 733 735 732 725 721 721 718 713 719 730 735 734 733 735 739 744 755 763 770 775 771 767 763 748 742 742 745 755 752 738 738 739 732 727 725 728 733 738 744 749 753 758 761 765
781 778 776 775 775 774 774 776 778 779 780 781 783 785 789 789 774 761 763 761 757 758 759 758 756 753 751 749 745 740 738 734 728 730 732 730 732 732 729 728 727 728 730 731 733 735 736 732 722 720 718 711 713 720 723 727 731 732 733 738 746 749 755 764 763 761 757 747 746 748 748 751 745 734 727 721 719 723 727 733 737 741 746 749 754 759 761 765
778 775 774 772 773 772 773 774 776 778 780 781 784 787 787 780 768 762 762 757 756 759 757 755 757 755 752 748 743 741 742 737 729 729 732 732 732 732 729 727 727 728 728 731 733 731 734 731 716 710 711 708 711 713 711 720 731 732 730 735 740 735 736 747 753 752 747 744 748 751 746 741 734 727 722 716 720 729 734 737 740 745 749 751 755 759 761 763
776 773 772 771 771 771 772 773 775 778 780 782 785 785 780 770 764 763 760 755 756 758 757 755 754 756 754 748 744 741 740 737 731 729 731 731 730 729 727 724 724 726 727 728 729 728 731 726 711 708 710 706 708 710 707 714 725 730 733 733 731 724 725 738 750 753 749 746 747 746 743 740 735 729 725 722 728 736 739 741 744 746 749 751 755 757 759 762
776 773 772 771 771 771 772 773 775 778 780 782 783 778 771 764 760 759 758 757 758 758 760 758 752 751 750 748 747 743 740 739 732 729 731 730 728 726 725 723 720 721 723 724 725 724 725 722 708 707 712 706 703 705 706 707 712 724 732 726 722 724 727 733 744 752 755 751 747 745 744 741 739 738 734 731 735 741 741 743 745 747 749 751 753 756 758 760
777 775 773 771 771 771 771 773 776 779 780 782 779 771 766 762 758 758 759 760 759 758 759 757 751 750 749 747 745 739 739 739 733 730 731 729 725 720 721 721 718 717 719 721 726 723 722 721 709 703 707 706 701 706 713 710 704 712 719 714 720 734 738 738 743 749 755 755 749 745 745 741 737 740 742 738 738 740 742 744 746 746 747 749 751 754 757 759
777 776 773 771 771 770 771 773 775 779 781 780 776 769 763 760 755 755 757 758 759 758 756 753 749 750 750 748 743 736 736 735 731 730 729 728 724 716 715 717 716 717 717 720 726 724 722 724 715 703 701 702 704 711 719 717 709 709 712 711 716 726 731 735 740 742 746 752 750 744 746 740 730 731 734 730 732 736 739 742 743 742 743 745 748 751 754 757
778 777 774 771 771 770 771 773 775 780 780 776 772 767 762 758 753 751 753 755 757 755 752 750 748 749 749 746 741 736 733 731 728 727 726 726 723 716 713 714 714 716 716 718 723 722 723 726 720 708 701 705 710 710 710 712 713 715 719 720 719 720 723 728 735 736 735 743 748 747 747 734 717 718 721 717 721 727 730 733 736 738 740 742 745 748 752 756
780 779 775 772 772 771 772 776 777 779 778 773 770 766 761 758 753 750 750 751 753 751 749 750 749 748 748 745 741 736 732 729 728 726 724 723 722 717 712 710 711 714 716 720 722 721 722 724 722 715 708 708 706 699 697 702 708 712 716 718 718 719 725 733 740 737 729 734 742 743 740 724 706 708 712 708 710 715 718 724 731 735 737 739 742 745 750 754
782 780 775 772 773 772 774 778 777 779 777 771 766 762 759 756 752 750 747 747 749 748 747 750 748 747 747 746 742 737 732 728 727 727 723 720 720 716 709 707 709 710 714 719 718 716 718 722 724 719 711 705 698 692 694 697 701 706 707 710 714 716 720 729 736 733 727 733 738 736 732 717 704 706 708 707 709 711 715 721 727 733 734 737 741 744 749 754
783 779 773 771 773 773 776 776 774 776 773 766 762 758 756 755 753 749 745 745 748 747 748 747 744 743 743 741 739 736 731 727 725 724 721 717 715 710 706 706 708 708 711 716 715 714 716 721 724 719 708 701 695 694 695 694 698 706 706 707 712 711 710 714 719 721 723 729 731 734 734 718 707 709 708 709 713 715 719 723 726 732 734 737 742 745 749 754
782 778 773 772 772 773 776 774 771 771 768 764 762 758 754 753 752 749 746 745 745 746 747 743 739 740 740 737 736 733 731 729 726 720 718 717 709 702 701 703 705 706 708 710 710 710 716 721 723 722 716 710 706 706 707 703 701 704 704 704 705 704 706 711 714 716 722 725 722 726 729 718 711 714 710 710 716 719 725 728 728 732 735 737 742 745 749 753
782 777 774 773 772 773 775 773 772 771 768 765 764 759 755 752 748 747 747 745 742 743 744 740 736 737 737 736 735 734 732 731 729 719 713 713 704 696 697 700 701 702 702 703 703 704 713 719 720 720 722 722 719 715 714 709 703 701 699 699 699 701 704 709 714 716 721 728 724 718 718 715 715 718 714 714 719 723 727 730 731 734 735 737 742 744 748 753
784 780 776 773 771 772 774 773 775 774 770 768 764 757 755 752 745 745 747 744 742 742 742 739 735 735 736 736 735 734 731 728 726 719 712 711 703 695 694 696 697 698 698 700 701 704 713 716 714 712 710 710 708 703 703 703 700 700 700 698 699 702 703 706 712 713 715 723 723 715 713 713 716 719 717 717 720 722 726 729 731 734 735 737 741 744 747 752
786 784 782 778 773 771 771 771 774 773 770 769 764 756 755 751 745 745 746 742 740 741 739 736 734 734 736 737 733 730 727 723 722 718 714 710 703 696 693 694 696 696 697 701 702 708 716 715 711 708 702 700 699 694 694 696 695 698 701 701 700 701 704 707 709 710 712 718 719 718 718 713 713 717 717 716 718 721 725 727 727 730 733 736 741 744 748 752
786 785 785 783 779 775 772 769 769 769 767 767 764 759 755 750 744 743 743 740 738 737 735 733 735 735 734 733 731 727 722 719 717 715 711 707 705 701 695 696 697 694 699 706 704 708 717 715 709 707 700 696 698 696 690 689 691 693 695 698 699 699 702 701 701 704 707 707 707 714 717 710 707 713 713 709 711 713 717 722 724 728 732 736 741 744 748 752
790 788 785 784 783 780 776 771 767 765 763 763 763 760 755 750 744 739 738 738 735 734 734 732 732 732 728 726 725 723 718 716 715 714 710 708 708 704 699 700 700 697 703 710 706 708 714 710 707 707 700 694 698 698 690 686 690 692 692 692 693 697 699 697 701 707 706 705 706 709 713 710 707 710 710 707 708 710 715 721 724 728 733 736 740 743 747 750
796 795 790 787 784 780 774 769 766 763 761 760 759 756 752 749 743 738 737 736 732 731 733 731 728 726 724 722 722 718 714 714 715 713 710 710 710 704 700 700 699 701 708 711 707 708 711 710 707 706 701 696 697 696 689 685 689 694 698 698 693 696 701 701 706 711 710 714 718 714 714 715 711 710 710 711 713 715 719 724 726 729 732 735 739 743 746 749
800 798 795 792 786 778 771 768 766 762 759 758 758 754 750 746 742 740 738 733 729 728 728 728 726 723 720 719 718 714 709 710 711 708 706 708 707 703 702 698 696 701 708 708 705 706 708 708 706 704 704 700 698 698 693 687 689 696 702 703 696 694 699 699 702 705 704 710 719 718 713 710 709 709 711 712 714 716 720 724 726 729 732 734 738 741 744 748
800 797 796 795 788 778 772 770 767 762 758 758 757 753 749 744 740 740 736 728 725 725 724 724 723 721 720 717 711 705 702 703 703 701 701 703 703 701 702 701 698 700 704 704 705 706 706 705 705 708 708 702 700 703 695 688 696 703 703 700 696 694 697 698 698 701 701 703 706 705 700 700 706 709 711 715 718 718 720 721 722 726 730 733 735 738 741 744